EHI
0 0 0 0 0 0 0 0 0 0 0 0 0 0 0 0 0 0 0 0 0 0 0 0 0 0 0 0 0 0 0 0 1 0 0 0 0 0 0 0 0 1 2 1
0 0 0 0 0 0 0 0 0 0 0 0 0 0 0 0 0 0 0 0 0 0 0 0 0 0 0 0 0 0 0 1 1 1 0 0 0 0 0 0 0 1 1 1
0 0 0 0 0 0 0 0 0 0 0 0 0 0 0 0 0 0 0 0 0 0 0 0 0 0 0 0 0 0 0 1 1 1 0 0 0 0 0 0 0 0 0 0
0 0 0 0 0 0 0 0 0 0 0 0 0 0 0 0 0 0 0 0 0 0 0 0 0 0 0 0 0 0 0 0 1 1 1 0 0 0 0 0 0 0 0 0
0 0 0 0 0 0 0 0 0 0 0 0 0 0 0 0 0 0 0 0 0 0 0 0 0 0 0 0 0 0 0 0 1 2 1 0 0 0 0 0 0 0 0 0
0 0 0 0 0 0 0 0 0 0 0 0 0 0 0 0 0 0 0 0 0 0 0 0 0 0 0 0 0 0 0 0 1 2 2 1 0 0 0 0 0 0 0 0
0 0 0 0 0 0 0 0 0 0 0 0 0 0 0 0 0 0 0 0 0 0 0 0 0 0 0 0 0 0 0 0 1 2 2 1 0 0 0 0 0 0 0 0
0 0 0 0 0 0 0 0 0 0 0 0 0 0 0 0 0 0 0 0 0 0 0 0 0 0 0 0 0 0 0 0 0 1 1 0 0 0 0 0 0 0 0 0
0 0 0 0 0 0 0 0 0 0 0 0 0 0 0 0 0 0 0 0 0 0 0 0 0 0 0 0 0 0 0 0 0 0 0 0 0 0 0 0 0 0 0 0
0 0 0 0 0 0 0 0 0 0 0 0 0 0 0 0 0 0 0 0 0 0 0 0 0 0 0 0 0 0 0 0 0 0 0 0 0 0 0 0 0 0 0 0
0 0 0 0 0 0 0 0 0 0 0 0 0 0 0 0 0 0 0 0 0 0 0 0 0 0 0 0 0 0 0 0 0 0 0 0 0 0 0 0 0 0 0 0
0 0 0 0 0 0 0 0 0 0 0 0 0 0 0 0 0 0 0 0 0 0 0 0 0 0 0 0 0 0 0 0 0 0 0 0 0 0 0 0 0 0 0 0
0 0 0 0 0 0 0 0 0 0 0 0 0 0 0 0 0 0 0 0 0 0 0 0 0 0 0 0 0 0 0 0 0 0 0 0 0 0 0 0 0 0 0 0
0 0 0 0 0 0 0 0 0 0 0 0 0 0 0 0 0 0 0 0 0 0 0 0 0 0 0 0 0 0 0 0 0 0 0 0 0 0 0 0 0 0 0 0
0 0 0 0 0 0 0 0 0 0 0 0 0 0 0 0 0 0 0 0 0 0 0 0 0 0 0 0 0 0 0 0 0 0 0 0 0 0 0 0 0 0 0 0
0 0 0 0 0 0 0 0 0 0 0 0 0 0 0 0 0 0 0 0 0 0 0 0 0 0 0 0 0 0 0 0 0 0 0 0 0 0 0 0 0 0 0 0
0 0 0 0 0 0 0 0 0 0 0 0 0 0 0 0 0 0 0 0 0 0 0 0 0 0 0 0 0 0 0 0 0 0 0 0 0 0 0 0 0 0 0 0
0 0 0 0 0 0 0 0 0 0 0 0 0 0 0 0 0 0 0 0 0 0 0 0 0 0 0 0 0 0 0 0 0 0 0 0 0 0 0 0 0 0 0 0
0 0 0 0 0 0 0 0 0 0 0 0 0 0 0 0 0 0 0 0 0 0 0 0 0 0 0 0 0 0 0 0 0 0 0 0 0 0 0 0 0 0 0 0
0 0 0 0 0 0 0 0 0 0 0 0 0 0 0 0 0 0 0 0 0 0 0 0 0 0 0 0 0 0 0 0 0 0 0 0 0 0 0 0 0 0 0 0
0 0 0 0 0 0 0 0 0 0 0 0 0 0 0 0 0 0 0 0 0 0 0 0 0 0 0 0 0 0 0 0 0 0 0 0 0 0 0 0 0 0 0 0
0 0 0 0 0 0 0 0 0 0 0 0 0 0 0 0 0 0 0 0 0 0 0 0 0 0 0 0 0 0 0 0 0 0 0 0 0 0 0 0 0 0 0 0
0 0 0 0 0 0 0 0 0 0 0 0 0 0 0 0 0 0 0 0 0 0 0 0 0 0 0 0 0 0 0 0 0 0 0 0 0 0 0 0 0 0 0 0
0 0 0 0 0 0 0 0 0 0 0 0 0 0 0 0 0 0 0 0 0 0 0 0 0 0 0 0 0 0 0 0 0 0 0 0 0 0 0 0 0 0 0 0
0 0 0 0 0 0 0 0 0 0 0 0 0 0 0 0 0 0 0 0 0 0 0 0 0 0 0 0 0 0 0 0 0 0 0 0 0 0 0 0 0 0 0 0
0 0 0 0 0 0 0 0 0 0 0 0 0 0 0 0 0 0 0 0 0 0 0 0 0 0 0 0 0 0 0 0 0 0 0 0 0 0 0 0 0 0 0 0
Wind_Speed
1 2 2 4 4 6 6 7 11 12 8 7 11 16 17 14 8 7 7 6 7 7 7 6 6 6 5 5 5 6 6 6 5 5 5 5 6 6 6 6 9 11 10 10
3 2 5 4 4 6 6 8 9 10 5 9 11 14 13 9 6 6 6 5 6 6 4 4 4 4 5 6 5 5 7 7 7 6 6 5 6 5 6 6 8 10 11 11
2 5 4 4 6 7 7 6 7 10 11 5 5 9 7 6 5 5 5 5 6 6 5 5 4 5 5 5 5 5 6 7 8 7 4 4 4 3 4 6 7 9 11 11
3 4 3 5 5 4 7 5 7 9 7 5 3 7 8 6 7 7 6 6 6 6 4 4 4 5 5 5 4 5 6 7 7 7 7 8 7 7 7 6 6 7 10 11
5 3 3 5 5 3 6 9 9 8 4 4 2 3 8 5 5 7 7 6 7 5 4 4 4 5 5 4 4 4 6 7 7 7 8 9 9 7 5 5 7 7 8 10
5 4 2 3 4 3 5 7 5 3 3 2 3 1 7 4 5 6 7 7 7 6 5 5 5 4 4 3 3 3 5 7 7 7 8 10 10 9 8 8 8 7 7 8
8 6 3 2 4 5 5 6 7 8 5 5 3 2 7 6 5 4 7 8 8 7 5 5 5 4 4 3 4 4 5 7 7 8 9 10 11 11 12 10 9 8 7 7
5 8 4 2 1 3 3 3 2 2 5 6 4 5 7 5 5 4 5 7 7 8 6 5 5 5 5 5 5 5 5 5 6 8 9 8 9 9 9 10 9 9 8 8
1 7 5 4 3 1 1 0 3 2 3 5 6 6 8 5 6 6 7 8 9 9 8 7 6 5 5 5 5 5 6 5 5 6 6 6 8 8 9 9 9 8 8 7
3 6 6 6 4 2 2 2 3 1 3 6 7 6 5 5 6 7 8 9 9 9 8 7 7 7 6 5 5 4 5 5 5 5 4 4 6 7 7 8 10 9 9 9
2 3 7 4 2 2 1 1 1 1 2 3 7 8 5 5 5 6 8 8 9 10 10 9 8 8 7 6 5 5 5 5 5 4 4 4 4 4 6 7 8 8 9 10
2 2 5 8 6 2 3 3 3 2 4 4 5 11 5 4 5 6 8 9 11 10 10 9 8 8 7 7 6 5 5 4 3 3 2 2 3 3 4 5 5 6 8 10
3 2 5 7 4 2 1 2 2 2 3 5 7 13 5 6 9 9 10 11 12 11 11 10 8 8 7 7 6 5 4 3 3 3 3 2 2 3 4 4 4 5 6 8
3 4 6 8 8 3 6 8 6 4 5 8 12 17 17 14 13 12 12 11 10 10 10 9 9 8 8 7 7 6 5 4 3 3 3 2 2 3 4 4 3 4 5 6
3 5 7 12 13 10 14 17 13 12 12 12 15 17 20 15 11 11 11 10 10 10 9 9 9 9 8 8 7 6 6 5 3 2 2 2 2 2 2 2 3 3 4 5
3 4 4 9 9 10 16 19 16 15 13 15 17 20 15 11 8 9 10 9 9 9 9 10 10 10 9 9 8 7 6 6 4 2 2 2 2 2 2 2 2 2 3 3
4 3 3 7 6 7 12 11 10 8 8 8 12 12 8 9 9 9 9 8 7 9 9 10 10 9 9 9 7 7 5 5 4 3 3 2 2 2 2 2 2 3 3 3
7 5 3 5 4 9 10 3 5 7 10 10 9 7 7 9 10 9 7 5 7 9 9 9 9 9 9 8 8 6 5 4 4 4 3 2 2 3 2 2 2 3 2 3
9 7 4 3 5 12 11 6 4 5 9 6 7 7 8 7 7 7 5 4 6 8 8 8 8 8 8 8 8 6 5 4 4 4 4 3 3 3 3 2 2 3 2 3
6 6 5 5 5 10 9 3 1 0 8 5 4 6 7 5 6 8 7 7 7 7 7 7 8 7 7 8 7 6 5 4 4 4 4 3 3 3 3 3 3 2 2 2
5 5 9 9 9 12 9 3 1 2 9 4 4 5 5 5 7 8 8 8 7 7 8 7 7 7 7 7 6 6 5 5 5 5 3 3 3 3 3 3 2 2 2 1
10 8 8 7 9 14 6 5 7 9 5 4 5 5 6 8 8 8 8 8 7 7 8 7 7 8 7 6 6 6 5 5 5 4 3 3 3 3 2 2 2 2 2 2
11 12 9 12 13 7 5 8 7 5 5 6 5 7 7 8 8 8 8 8 7 7 7 7 7 8 8 7 6 6 6 5 4 4 4 4 4 3 2 2 2 2 1 2
7 6 6 8 11 9 8 7 6 6 7 7 7 7 6 8 8 8 7 8 8 7 8 7 7 8 9 8 6 6 5 5 4 4 4 3 3 3 3 2 2 2 1 2
9 6 6 10 10 7 8 9 10 8 7 7 7 7 7 7 8 8 7 7 7 7 7 6 7 8 8 8 7 6 4 3 3 4 3 3 3 3 3 3 2 3 3 3
8 10 9 12 9 8 8 7 7 7 8 8 8 8 7 6 8 8 7 7 7 7 7 7 7 8 8 7 7 6 4 3 3 4 3 3 3 2 2 2 3 3 3 4
Wind_Direction
80 68 277 260 237 249 266 264 278 280 285 292 278 286 294 302 293 285 283 271 256 249 246 239 234 234 238 234 225 217 207 198 193 200 198 200 205 201 198 198 194 189 186 189
24 277 253 263 279 282 283 284 281 291 297 299 284 285 290 297 283 277 288 285 268 270 274 264 246 240 239 229 221 224 214 200 198 205 206 205 207 205 200 199 197 193 189 190
258 258 278 308 308 306 292 271 280 294 312 298 309 299 301 313 312 318 317 296 281 268 259 254 248 243 233 229 228 233 228 211 207 205 206 208 207 199 202 199 196 197 192 192
292 275 302 306 297 301 294 273 283 293 318 305 354 305 300 314 331 336 327 321 314 291 275 262 256 251 236 236 238 242 239 220 214 206 206 209 210 207 208 201 199 197 197 195
292 290 306 297 284 288 271 292 292 286 274 291 294 251 292 324 322 319 321 326 322 304 282 277 269 255 249 241 248 253 251 227 215 214 214 215 214 213 206 202 199 200 203 200
271 289 277 267 292 289 301 319 322 6 54 312 273 247 294 302 289 309 326 337 331 320 301 290 280 274 272 260 261 270 259 239 218 217 218 217 211 206 204 206 202 201 205 202
327 318 317 345 340 343 21 23 5 359 3 273 300 283 263 281 285 300 317 328 328 323 309 306 304 299 291 279 268 278 267 246 228 224 223 221 210 204 207 207 205 204 208 204
339 309 312 345 313 302 327 95 103 298 285 296 312 265 266 291 303 315 326 328 328 329 324 315 304 296 288 278 270 275 267 265 241 231 231 222 213 210 209 209 208 210 210 206
271 281 299 299 271 232 323 247 191 198 284 284 280 286 299 311 327 334 337 339 336 327 322 315 308 299 293 286 279 272 261 263 258 247 238 227 220 217 215 210 211 213 208 204
183 275 291 306 320 300 190 172 68 68 318 295 290 274 270 300 315 329 338 337 331 331 329 324 321 317 307 300 294 294 278 269 262 241 234 238 234 225 217 214 215 212 208 201
145 241 301 326 271 256 21 45 136 202 209 253 292 278 242 254 288 312 319 323 321 326 327 324 321 320 319 320 317 302 291 283 278 256 242 240 241 235 225 219 219 214 209 200
180 169 275 264 253 243 200 200 157 188 267 234 263 276 269 272 297 311 313 315 316 319 322 318 317 324 330 324 315 307 306 299 284 283 272 254 255 239 227 223 225 219 212 205
152 131 318 327 334 358 306 245 207 226 248 240 247 268 296 322 319 317 315 315 318 320 322 324 324 327 325 320 316 309 309 305 300 301 288 260 252 244 230 226 226 230 219 210
156 182 203 237 253 270 280 275 265 237 247 256 248 269 290 301 305 309 311 312 313 317 323 330 331 329 324 322 320 320 313 301 304 306 303 291 262 249 236 226 226 232 226 216
165 234 240 255 267 271 269 271 264 244 237 246 263 273 282 290 296 301 305 310 318 323 329 331 331 327 324 326 326 326 320 312 302 299 299 281 279 274 267 241 231 235 235 225
185 242 268 273 265 267 271 268 260 253 246 245 261 273 275 289 298 302 306 310 318 322 324 326 327 327 324 323 322 322 321 315 308 298 297 293 299 297 280 271 252 249 241 227
196 201 266 277 301 306 272 252 236 229 224 222 246 261 294 307 306 304 303 302 309 316 320 321 321 318 317 314 313 313 311 311 312 309 302 298 302 292 272 275 256 251 254 245
189 183 228 283 328 258 248 243 228 240 253 241 249 267 284 287 291 290 282 289 308 315 319 319 319 315 314 312 311 309 315 316 314 317 311 302 299 292 279 270 270 254 249 233
188 182 207 234 263 275 285 272 227 233 272 248 239 266 284 297 309 299 284 298 297 302 308 309 310 309 312 313 315 313 319 318 319 316 312 299 291 289 282 266 269 265 254 248
177 179 201 214 239 255 255 254 260 9 281 259 228 264 286 317 314 294 304 312 309 311 311 313 316 318 318 317 320 315 310 311 309 303 298 297 288 284 278 268 260 275 259 248
156 192 214 224 241 262 257 245 125 217 256 262 246 258 265 250 248 273 297 302 303 305 307 314 318 318 314 318 323 314 308 304 300 304 305 305 301 292 282 278 266 274 267 240
183 189 201 198 224 250 226 166 196 228 250 254 259 259 260 262 271 281 288 293 301 305 309 316 316 312 310 313 319 313 300 298 303 308 307 306 306 302 292 275 277 276 244 198
204 197 192 200 220 235 199 209 229 231 248 254 257 264 263 268 274 283 287 292 296 299 303 308 307 307 309 309 309 301 297 304 310 311 304 302 304 301 293 266 259 275 225 191
236 202 206 242 253 252 256 258 260 248 247 254 254 258 258 263 273 279 286 291 296 298 300 303 308 306 304 305 302 292 292 300 296 291 290 294 302 305 305 285 253 251 237 206
216 195 217 246 261 275 258 246 251 253 255 260 263 258 255 259 269 272 278 284 289 293 296 297 295 294 295 301 302 300 291 298 298 296 298 301 296 293 299 302 277 258 248 233
200 201 211 241 232 226 247 241 237 245 254 256 260 267 264 256 265 272 278 282 286 291 295 298 298 296 297 301 301 304 298 293 294 299 298 291 290 290 292 305 319 306 261 260